User: anonymous   Login
Location: Caltech
(34.1382°N, 118.1253°W)
Time: 13:43:32
(UTC-08:00)
Language:

Spot 4 Rocket - Orbit

View from above orbital plane
View from above orbital plane
View from above satellite
View from above satellite

Ground track
Ground track

The orbit data is extracted from the following two-line orbital elements,

1 25261U 98017B   16340.93544591  .00000124  00000-0  60736-4 0  9998
2 25261  98.5226 284.8469 0002607 320.6060  39.4935 14.33536072977328
Epoch (UTC): 05 December 2016 22:27:02
Eccentricity: 0.0002607
inclination: 98.5226°
perigee height: 778 km
apogee height: 782 km
right ascension of ascending node: 284.8469°
argument of perigee: 320.6060°
revolutions per day: 14.33536072
mean anomaly at epoch: 39.4935°
orbit number at epoch: 97732

The dashed part of the orbit path shows where the satellite is in the earth's shadow,  

DLR